This is the latest recevied weather packets stored in our database for station/object LX1CU-13. If no packets are shown the sender has not sent any weather packets the latest 10 day(s).
| Time | Temp. | Humidity | Pressure | Rain* | Wind** | Luminosity | Snow |
|---|---|---|---|---|---|---|---|
| 1777553027 | 23.33° C | 21% | 1020.4 hPa | 0 mm | - | - | - |
| 1777552727 | 23.89° C | 21% | 1020.5 hPa | 0 mm | - | - | - |
| 1777552427 | 23.89° C | 21% | 1020.5 hPa | 0 mm | - | - | - |
| 1777552127 | 23.89° C | 22% | 1020.5 hPa | 0 mm | - | - | - |
| 1777551827 | 23.33° C | 22% | 1020.4 hPa | 0 mm | - | - | - |
| 1777551527 | 23.33° C | 22% | 1020.3 hPa | 0 mm | - | - | - |
| 1777551227 | 23.33° C | 22% | 1020.3 hPa | 0 mm | - | - | - |
| 1777550927 | 22.78° C | 23% | 1020.3 hPa | 0 mm | - | - | - |
| 1777550627 | 22.78° C | 23% | 1020.4 hPa | 0 mm | - | - | - |
| 1777550327 | 22.22° C | 23% | 1020.5 hPa | 0 mm | - | - | - |
| 1777550027 | 22.22° C | 22% | 1020.6 hPa | 0 mm | - | - | - |
| 1777549727 | 22.78° C | 23% | 1020.7 hPa | 0 mm | - | - | - |
| 1777549427 | 22.78° C | 23% | 1020.8 hPa | 0 mm | - | - | - |
| 1777549127 | 22.22° C | 24% | 1020.8 hPa | 0 mm | - | - | - |
| 1777548827 | 22.22° C | 24% | 1020.8 hPa | 0 mm | - | - | - |
| 1777548527 | 21.67° C | 25% | 1020.9 hPa | 0 mm | - | - | - |
| 1777548227 | 21.67° C | 25% | 1020.9 hPa | 0 mm | - | - | - |
| 1777547927 | 21.11° C | 25% | 1021 hPa | 0 mm | - | - | - |
| 1777547627 | 20.56° C | 25% | 1021 hPa | 0 mm | - | - | - |
| 1777547327 | 20.56° C | 25% | 1021.2 hPa | 0 mm | - | - | - |
| 1777547027 | 20.56° C | 25% | 1021.2 hPa | 0 mm | - | - | - |
| 1777546727 | 21.11° C | 25% | 1021.3 hPa | 0 mm | - | - | - |
| 1777546427 | 20.56° C | 25% | 1021.2 hPa | 0 mm | - | - | - |
| 1777546127 | 20.56° C | 25% | 1021.3 hPa | 0 mm | - | - | - |
| 1777545827 | 21.11° C | 25% | 1021.2 hPa | 0 mm | - | - | - |
* Rain latest hour (hover to see other rain measurements)
** Current wind speed in m/s (hover to see current wind gust speed)